Location: Cactus School
(34.5700°N, 118.0931°W)
Time: 07:26:04
(UTC-08:00)

A-11 Canister half - Pass Details

Date: 26 November 2019
Orbit: 1515 x 1685 km, 47.2° (Epoch: 08 December)

Event Time Altitude Azimuth Distance (km) Brightness Sun altitude
Rises 21:28:46 0° 305° (NW) 4,938 12.1 -58.2°
Reaches altitude 10° 21:31:57 10° 306° (NW) 3,951 11.4 -58.9°
Enters shadow 21:34:13 19° 307° (NW) 3,267 10.9 -59.3°
